Regional Weather Roundup
Issued by NWS Grand Forks, ND

Home | Current Version | Previous Version | Graphics & Text | Print | Product List | Glossary On
Versions: 1 2 3 4 5 6 7 8 9 10 11 12 13 14 15 16 17 18 19 20 21 22 23 24 25 26 27 28 29 30 31 32 33 34 35 36 37 38 39 40 41 42 43 44 45 46 47 48 49 50
342
ASUS43 KFGF 240331
RWRFGF
PRAIRIE TO PINES  WEATHER ROUNDUP
NATIONAL WEATHER SERVICE EASTERN NORTH DAKOTA/GRAND FORKS ND
900 PM CST THU FEB 23 2017

 **SATELLITE DATA USED TO AUGMENT SKY COVER AT AUTOMATED STATIONS**
 *****  WEATHER ACROSS EASTERN NORTH DAKOTA  *****

CITY           SKY/WX    TMP DP  RH WIND       PRES   REMARKS
GRAND FORKS    FAIR      21  13  71 N9        30.12F WCI  11
GRAND FRKS AFB FAIR      19  15  84 N12       30.12F WCI   7
DEVILS LAKE    FAIR      17  14  88 N7        30.12S WCI   8
FARGO          FAIR      24  15  68 N15       30.06F WCI  11
WAHPETON ARPT  CLOUDY    27  19  74 N17G26    30.04R WCI  14
$$

 ***** WEATHER ACROSS CENTRAL AND WESTERN NORTH DAKOTA  *****

CITY           SKY/WX    TMP DP  RH WIND       PRES   REMARKS
BISMARCK       MOCLDY    22  15  75 N8        30.11S WCI  12
MINOT          FAIR      21  15  78 CALM      30.13R
JAMESTOWN      MOCLDY    23  18  81 N14       30.06S WCI  11
MINOT AFB      FAIR      14  11  87 NW5       30.13R WCI   6
GARRISON         N/A     13   8  81 N5        30.12S WCI   5
WILLISTON      FAIR      14   9  80 N3        30.14R
DICKINSON      MOCLDY    18  12  77 N10       30.05S WCI   6
HETTINGER      CLOUDY    23  22  96 NE13      30.05R FOG     WCI  11
$$

 *****  OTHER AIRPORT OBSERVATIONS IN OUR AREA  *****

CITY           SKY/WX    TMP DP  RH WIND       PRES   REMARKS
WALHALLA       NOT AVBL
GRAFTON AIRPOR FAIR      18  16  93 N5        30.16S WCI  11
VALLEY CITY AR FAIR      21  19  93 NE15      30.08S WCI   8
CANDO          NOT AVBL
CAVALIER APRT    N/A     14  14 100 NW6       30.16S WCI   5
GWINNER        MOCLDY    25  19  80 N21G30    30.05R WCI  10
SHEYENNE NWR     N/A     22  14  72 NE15      29.95S WCI   9
ROLLA          FAIR      12  10  92 W7        30.11S WCI   2
 ***** THE ABOVE OBSERVATIONS ARE NON NWS ARE NOT QUALITY
       CONTROLLED AND MAY MIS-REPORT RAIN FOR SNOW...
$$

  *****  WEATHER ACROSS NORTHERN MINNESOTA  *****

CITY           SKY/WX    TMP DP  RH WIND       PRES   REMARKS
FLAG ISLAND    FAIR      14   5  67 NW15      30.09S WCI  -1
WARROAD        FAIR      14   7  73 NW6       30.10S WCI   5
ROSEAU         FAIR      12   7  79 N9        30.11S WCI   0
HALLOCK        FAIR      18  14  86 N8        30.14S WCI   7
THF RVR FALLS  FAIR      17  11  77 N9        30.10F WCI   6
BAUDETTE       FAIR      15   5  64 NW13      30.07R WCI   1
WASKISH        FAIR      16   9  73 N6        30.06F WCI   7
CROOKSTON      FAIR      21  14  73 NE9       30.12S WCI  11
STEPHEN NDAWN    N/A     18  14  86 N7          N/A  WCI   8
GREENBUSH NDAW   N/A      9   5  85 NW3         N/A
$$
  *****  WEATHER ACROSS CENTRAL AND WEST MINNESOTA  *****

CITY           SKY/WX    TMP DP  RH WIND       PRES   REMARKS
FOSSTON        FAIR      16  10  79 N18       30.05F WCI  -1
BEMIDJI        MOCLDY    18  11  72 N8        30.02F WCI   8
PARK RAPIDS    FAIR      22  12  65 N14       29.97F WCI   9
ELBOW LAKE     FAIR      24  20  82 NE12      30.00R WCI  13
WADENA         FAIR      21  16  79 N12G20    29.98R WCI   9
DETROIT LAKES  MOCLDY    23  18  80 N14G22    30.01S WCI  11
MOORHEAD       FAIR      21  14  73 N17G26    30.06F WCI   7
FERGUS FALLS   FAIR      23  18  80 NE14G20   30.05R WCI  11
MORRIS MN      FAIR      27  21  80 N20       29.95S WCI  13
STAPLES        FAIR      23  18  80 N6        29.98R WCI  16
$$
  *****  WEATHER ELSEWHERE ACROSS MINNESOTA  *****

CITY           SKY/WX    TMP DP  RH WIND       PRES   REMARKS
DULUTH         FAIR      23  17  78 N8        29.94F WCI  14
INTRNTL FALLS  FAIR      17   7  64 NW8       30.04S WCI   7
ELY            FAIR      19  10  68 NW5       29.98F WCI  13
CLOQUET        FAIR      23  18  80 N8        29.94F WCI  14
WHEATON        CLOUDY    25  19  80 N17G23    30.03R WCI  11
BRAINERD       FAIR      24  17  74 N13       29.96F WCI  12
HIBBING        FAIR      20  13  74 N9        29.98F WCI   9
ALEXANDRIA     FAIR      26  21  81 N15       29.95R WCI  14
SAINT CLOUD    CLOUDY    27  21  78 N15G24    29.93F WCI  15
MINNEAPOLIS    CLOUDY    30  22  72 NE14      29.89S WCI  19
$$

  *****  WEATHER ACROSS SOUTH DAKOTA  *****

CITY           SKY/WX    TMP DP  RH WIND       PRES   REMARKS
SIOUX FALLS    SNOW      28  27  96 NE23G31   29.81F VSB 1/4 WCI  14
BROOKINGS      CLOUDY    27  23  85 NE18G26   29.89R WCI  14
WATERTOWN      CLOUDY    24  19  81 NE23G33   29.91R WCI   9
HURON          CLOUDY    28  22  78 NE21      29.95R WCI  15
SISSETON         N/A     25  20  81 NE23G29   30.01R WCI  10
ABERDEEN       CLOUDY    26  19  74 NE21G30   30.01R WCI  12
MITCHELL       LGT SNOW  29  25  85 NE21G29   29.92R FOG     WCI  16
PIERRE         CLOUDY    28  21  75 NE22G29   29.96R WCI  14
MOBRIDGE       CLOUDY    30  21  69 N15       30.00R WCI  19
RAPID CITY     FLURRIES  27  22  81 NE14      29.96R WCI  16
$$

  *****  SOME WEATHER IN NEARBY STATES *****

CITY           SKY/WX    TMP DP  RH WIND       PRES   REMARKS
GLASGOW MT     CLOUDY    26  19  74 E9        30.11S WCI  17
GREAT FALLS MT FLURRIES  24  21  88 N7        29.98S WCI  16
CHEYENNE WY    LGT SNOW  15  11  83 N14G21    29.79R FOG     WCI   0
SCOTTSBLUFF NE LGT SNOW  23  19  85 N7        29.89R FOG     WCI  15
OMAHA NE       RAIN      36  32  85 N21G28    29.57F FOG
DES MOINES IA  DRIZZLE   42  40  92 E15G26    29.58F FOG
DAVENPORT IA   CLOUDY    39  36  89 E24       29.64F
CHICAGO IL     LGT RAIN  39  36  89 NE13G22   29.75S
EAU CLAIRE WI  CLOUDY    34  26  72 NE14      29.85F WCI  25
LA CROSSE WI   CLOUDY    43  25  49 NE12G23   29.79F
$$

  *****  SOME NATIONAL WEATHER *****

CITY           SKY/WX    TMP DP  RH WIND       PRES   REMARKS
LA GUARDIA NY  FAIR      58  48  69 VRB5      29.88S
RALEIGH NC     FAIR      61  50  67 S5        29.93R
ATLANTA GA     FAIR      65  52  62 SE5       29.87R
NEW ORLEANS LA FAIR      67  61  81 SE8       29.81R
OKLAHOMA CITY  FAIR      72  36  26 SW13      29.42R
ALBUQUERQUE NM FAIR      43   7  22 N17G25    29.76R
SALT LAKE CITY CLOUDY    29  25  85 W9        29.88S WCI  20
LOS ANGELES CA FAIR      55  25  31 N10       30.06R
BOISE ID       CLOUDY    32  23  69 NW16      29.96R WCI  21
SEATTLE WA     FAIR      37  33  85 SE8       30.20S
$$

*** WEATHER ACROSS MANITOBA...SASKATCHEWAN AND ONTARIO ***
                ***ONTARIO***

CITY           SKY/WX    TMP DP  RH WIND       PRES   REMARKS
GERALDTON      PTCLDY     9   0  66 N10G18    30.00R WCI  -6
THUNDER BAY    PTCLDY    25  10  54 N8        30.02R WCI  16
SIOUX LOOKOUT  CLEAR     10   1  67 N5        30.04S WCI   2
TORONTO        MOCLDY    41  36  81 N8        29.87S
BIG TROUT LK   FLURRIES   1  -2  85 N6        30.11R WCI -10
PICKLE LAKE    NOT AVBL
DRYDEN         CLEAR     10   3  72 N6        30.04S WCI   1
KENORA         CLEAR     12   3  67 N7        30.06  WCI   2
$$
                *** MANITOBA***

CITY           SKY/WX    TMP DP  RH WIND       PRES   REMARKS
BRANDON        CLOUDY    23  18  80 W7        30.11F WCI  15
DAUPHIN        FLURRIES  19  14  79 NE9       30.16R WCI   9
ISLAND LAKE    CRYSTALS   0  -8  71 CALM      30.21R
PILOT MOUND      N/A     16  12  86 W5          N/A  WCI   9
THE PAS        CLEAR      5  -4  66 E5        30.20S WCI  -4
THOMPSON       MOCLDY    -9 -15  77 N5        30.25R WCI -21
WINNIPEG       CLEAR     14   9  79 NE6       30.16S WCI   5
LYNN LAKE      MOCLDY    -6  -9  84 CALM      30.20S
CHURCHILL      MOCLDY   -11 -15  84 N9        30.38R WCI -29
GILLAM         CLEAR     -8 -15  71 NE6       30.30S WCI -21
$$
                ***SASKATCHEWAN***

CITY           SKY/WX    TMP DP  RH WIND       PRES   REMARKS
ESTEVAN        MOCLDY    25  18  74 SW8       30.12S WCI  16
KINDERSLEY     FLURRIES  25  23  93 W2        30.06F
LLOYDMINSTER   MOCLDY    16  12  86 S7        30.06R WCI   6
PRINCE ALBERT  MOCLDY    14   9  79 E3        30.12S
REGINA         CLOUDY    25  19  80 W5        30.12S WCI  19
YORKTON        CLEAR     16  10  79 NW9       30.12S WCI   4
N. BATTLEFORD  PTCLDY    16  16 100 SE5       30.11F WCI   9
LA RONGE       FLURRIES   9   1  72 SW2       30.15R
SASKATOON      MOCLDY    21  16  79 N5        30.12S WCI  15
SWIFT CURRENT  CLOUDY    23  18  80 S8        30.07F WCI  14
$$
NOTE: THESE ARE AUTOMATED STATIONS WITH LIMITED QUALITY CONTROL
      "FAIR" INDICATES FEW OR NO CLOUDS BELOW 12,000 FEET WITH NO
      SIGNIFICANT WEATHER AND/OR OBSTRUCTIONS TO VISIBILITY.
      SKY/WX - SKY CONDITION AND SIGNIFICANT WEATHER.
      TMP - AIR TEMPERATURE.    DP   - DEWPOINT TEMPERATURE.
      RH  - RELATIVE HUMIDITY.  PRES - PRESSURE.
      HX  - HEAT INDEX.         WCI  - WIND CHILL INDEX.
$




USA.gov is the U.S. government's official web portal to all federal, state and local government web resources and services.